Location: Cerci�
(46.1201°N, 4.6735°E)
Time: 14:47:20
(UTC+00:00)

Daily predictions for brighter satellites

Satellite Brightness Start Highest point End
(mag) Time Altitude Azimuth Time Altitude Azimuth Time Altitude Azimuth
Cosmos 1455 2.6 20:08:31 10° N 20:12:16 48° ENE 20:16:00 10° SSE
Cosmos 1461 4.0 20:07:49 10° NW 20:12:22 48° WSW 20:16:55 10° SSE
Cosmos 1825 Rocket 4.4 20:11:48 10° SSE 20:15:46 33° E 20:19:46 10° NNE
ATLAS CENTAUR R/B 3.2 20:15:32 10° N 20:18:10 18° NE 20:20:46 10° E
Cosmos 1703 3.9 20:16:44 10° SSE 20:20:19 37° E 20:23:54 10° NNE
COSMOS 2428 4.0 20:17:05 10° SSE 20:21:09 21° E 20:25:15 10° NE
Cosmos 1812 Rocket 3.6 20:18:11 10° N 20:22:33 90° W 20:26:53 10° S
Cosmos 1844 4.1 20:18:14 10° NNW 20:23:55 53° ENE 20:29:30 10° SE
Cosmos 2322 4.3 20:19:38 10° S 20:24:49 37° ESE 20:30:01 10° NE
Cosmos 1602 Rocket 3.9 20:24:40 10° SSW 20:29:03 72° W 20:33:32 10° N
Cosmos 1709 Rocket 4.4 20:25:53 10° SSE 20:31:51 48° E 20:37:55 10° NNE
Cosmos 2263 Rocket 4.0 20:27:29 10° NW 20:32:02 26° WSW 20:36:35 10° SSW
Nadezhda 1 Rocket 4.1 20:26:45 10° N 20:33:12 90° WSW 20:39:35 10° S
MetOp-B 4.2 20:28:44 10° SSE 20:34:06 88° ENE 20:39:30 10° NNW
Atlas Centaur 2 3.8 20:30:22 10° SW 20:34:29 19° S 20:38:47 11° SE
Terra 3.2 20:31:48 10° ESE 20:35:40 25° ENE 20:39:34 10° N
CARTOSAT-1 4.5 20:32:57 11° SE 20:36:41 35° ENE 20:40:38 10° N
Cosmos 2219 Rocket 3.0 20:32:15 10° SSE 20:37:03 30° ESE 20:41:53 10° NE
Cosmos 2360 Rocket 2.2 20:33:07 10° SSW 20:38:46 84° ESE 20:44:28 10° NNE
IGS 5A 3.5 20:35:39 10° SSE 20:39:47 72° ENE 20:43:56 10° N
Cosmos 2333 Rocket 2.7 20:41:32 10° S 20:46:45 39° ESE 20:52:02 10° NE
ATLAS 2AS CENTAUR R/B 4.3 20:43:48 10° NNW 20:50:36 32° NNE 20:56:56 10° E
Cosmos 1315 Rocket 4.0 20:47:48 10° N 20:51:28 31° ENE 20:54:13 15° SE
Resurs 01 Rocket 2.9 20:47:35 10° SSW 20:51:40 37° W 20:55:47 10° NNW
Cosmos 1818 3.7 20:48:37 10° SW 20:54:02 81° NW 20:59:32 10° NE
Cosmos-2242 3.0 20:50:44 10° N 20:55:05 89° NE 20:59:06 12° S
Cosmos 773 Rocket 4.1 20:51:37 10° S 20:56:49 60° ESE 21:02:02 10° NNE
SL-16 R/B 4.0 20:52:45 10° WSW 20:57:56 35° NW 21:03:09 10° NNE
Cosmos 2221 4.0 20:56:19 10° NNE 20:59:54 24° ENE 21:02:29 15° ESE
ERS-1 Rocket 3.1 20:56:51 15° SSE 21:01:04 67° ENE 21:06:05 10° N
GEOS 3 Rocket 3.7 20:58:48 10° NE 21:04:14 86° SE 21:09:38 10° SW
USA 215 3.3 21:01:12 10° ENE 21:07:40 58° SE 21:14:05 10° SW
Cosmos 2278 Rocket 3.3 21:03:35 10° NNW 21:08:45 34° NE 21:13:09 13° ESE
ATLAS 5 CENTAUR R/B 2.0 21:06:40 10° SW 21:10:46 64° NW 21:15:26 10° NE
USA 245 4.1 21:08:35 12° S 21:11:26 43° W 21:15:19 10° NNW
Meteor 1-11 4.2 21:05:53 10° S 21:11:29 74° E 21:17:10 10° NNE
Cosmos 1844 Rocket 3.1 21:08:16 10° NW 21:13:42 56° WSW 21:18:16 15° S
Cosmos 1400 Rocket 3.4 21:10:31 10° NNW 21:14:24 53° W 21:17:41 13° S
Cosmos 1758 Rocket 4.5 21:10:15 10° SSW 21:14:37 50° WNW 21:19:00 10° N
SPOT 5 2.9 21:13:56 18° SSE 21:17:47 82° ENE 21:22:36 10° NNW
Lacrosse 5 rocket 4.2 21:16:44 10° NW 21:19:43 18° N 21:22:36 10° NE
Spot 2 Rocket 4.4 21:16:52 10° S 21:21:42 45° W 21:26:37 10° NNW
USA 81 4.0 21:19:52 14° S 21:24:26 82° E 21:29:45 10° N
Cosmos 2058 4.2 21:25:00 21° ESE 21:26:24 25° E 21:29:48 10° NE
BREEZE M DEB (TANK) 1.9 21:25:07 10° WNW 21:27:25 44° SSW 21:27:39 41° S
Cosmos 2181 Rocket 4.0 21:22:59 10° N 21:29:22 86° W 21:34:15 18° S
Cosmos 2074 Rocket 4.2 21:29:16 19° SSE 21:33:36 56° E 21:39:39 10° NNE
SPOT 1/Viking Rocket 4.4 21:31:52 12° SSW 21:36:19 43° W 21:41:16 10° NNW
Cosmos 1953 Rocket 4.3 21:33:31 10° SSW 21:37:43 51° WNW 21:41:57 10° N
Cosmos 1680 Rocket 4.4 21:35:41 23° SE 21:37:46 31° E 21:42:24 10° NE
USA 267 3.5 21:34:05 12° ESE 21:40:08 68° NNE 21:46:39 10° NW
Cosmos 2084 3.5 21:41:29 10° NW 21:45:58 84° SW 21:48:05 31° SE
Cosmos 1842 Rocket 3.5 21:42:31 10° N 21:46:55 84° E 21:49:02 30° SSE
OAO 2 Rocket 4.5 21:43:55 10° SW 21:48:09 24° S 21:48:29 24° S
JB-3 4.3 21:44:42 10° NNE 21:48:31 58° E 21:49:57 34° SSE
MTI 3.5 21:49:24 10° NNE 21:52:29 71° E 21:53:10 49° S
Cosmos 923 Rocket 4.1 21:52:20 26° S 21:55:09 56° ESE 22:00:20 10° NNE
ATLAS CENTAUR R/B 1.3 21:53:46 10° NW 21:57:23 57° WSW 21:58:26 39° S
Cosmos 1825 3.6 21:58:08 22° E 21:58:32 22° E 22:01:30 10° NE
Cosmos 1980 3.9 21:56:55 26° S 21:59:56 53° ESE 22:05:25 10° NE
ALOS 2 4.5 21:58:03 15° E 22:00:07 20° ENE 22:03:21 10° NNE
Cosmos 967 Rocket 4.5 21:55:39 10° SSW 22:02:04 72° ESE 22:08:32 10° NE
COSMOS 2428 3.1 21:59:15 10° SW 22:04:52 65° WNW 22:10:33 10° NNE
Cosmos 1869 3.4 22:03:53 10° NNW 22:07:51 69° W 22:09:22 36° S
NOSS 0 Rocket 3.8 22:07:31 18° SSW 22:12:14 78° ESE 22:18:26 10° NNE
Terra 2.7 22:10:34 22° SSW 22:13:12 41° W 22:17:44 10° NNW
NOSS 3-4 (A) 4.0 22:07:38 10° NW 22:14:34 70° NE 22:19:46 22° SE
NOSS 3-4 (C) 4.0 22:07:45 10° NW 22:14:41 70° NE 22:19:55 22° SE
Cosmos 2237 Rocket 2.2 22:14:58 26° S 22:18:10 69° ESE 22:23:51 10° NNE
Genesis I 3.4 22:18:35 46° SE 22:18:50 47° ESE 22:22:36 10° NE
Cosmos 2344 3.7 22:16:02 22° S 22:20:44 53° ESE 22:28:19 10° NE
Cosmos 2219 Rocket 3.2 22:15:27 10° SW 22:20:48 45° WNW 22:26:12 10° NNE
BREEZE-M R/B 4.4 22:12:46 10° WNW 22:21:40 41° SW 22:23:37 31° S
Elektron 1 4.1 22:21:21 44° SSW 22:22:19 75° SE 22:27:18 10° NE
Atlas Centaur 2 4.1 22:18:22 10° SW 22:21:21 17° SSW 22:21:21 17° SSW
DELTA 2 R/B (1) 4.0 22:23:44 10° SW 22:28:51 38° SSE 22:30:02 34° SE
Cosmos 2333 Rocket 3.6 22:25:47 10° WSW 22:31:03 37° NW 22:36:22 10° NNE
Thor Agena Rocket 3.4 22:26:08 10° NNE 22:31:16 73° ESE 22:33:18 37° S
Cosmos 2184 Rocket 4.4 22:27:10 18° SSW 22:31:48 58° WNW 22:38:02 10° N
Cosmos 2221 3.8 22:33:34 10° NNW 22:37:32 34° W 22:39:20 24° SW
BREEZE-M DEB (TANK) 1.9 22:37:03 10° WNW 22:40:57 60° NNE 22:41:22 50° ENE
Iridium 2 3.6 22:37:55 10° N 22:41:45 80° W 22:42:26 58° SSW
Cosmos 1371 Rocket 4.0 22:36:58 10° NNW 22:42:16 85° ENE 22:44:15 40° SSE
ATLAS 2AS CENTAUR R/B 2.8 22:34:57 10° NW 22:42:36 89° ENE 22:46:25 30° SE
Cosmos 1892 3.6 22:41:59 29° SW 22:43:21 41° WNW 22:46:59 10° N
EO 1 Del DPAF 3.1 22:40:33 10° NNE 22:44:20 89° W 22:44:59 59° SSW
Cosmos 1766 Rocket 4.0 22:44:24 40° ESE 22:45:10 44° E 22:49:22 10° NNE
MOS 1-B Rocket 4.3 22:38:29 10° NNE 22:46:16 83° ESE 22:49:56 30° S
Okean 3 Rocket 3.8 22:47:02 46° SE 22:47:57 55° E 22:52:18 10° NNE
Aureole 2 Rocket 2.9 22:46:32 10° N 22:48:59 40° NE 22:48:59 40° NE
Cosmos 1328 Rocket 4.3 22:45:18 10° N 22:49:23 40° ENE 22:50:25 34° ESE
USA 215 3.9 22:44:17 10° NE 22:50:40 56° NNW 22:57:02 10° WSW
Cosmos 2112 Rocket 4.1 22:48:24 29° SSW 22:51:12 77° WNW 22:56:36 10° NNE
Cosmos 1606 3.1 22:47:58 10° N 22:51:47 51° ENE 22:52:19 47° ESE
Cosmos 2278 Rocket 2.9 22:47:36 10° NW 22:52:56 43° WSW 22:54:59 31° SSW
Cosmos 2218 Rocket 4.4 22:50:54 33° SE 22:53:26 50° E 22:59:30 10° NNE
Cosmos 2297 4.0 22:48:49 10° NNW 22:54:32 63° ENE 22:57:11 32° SE
Cosmos 158 Rocket 4.1 22:52:56 28° SW 22:55:25 64° WNW 23:00:19 10° NNE
Cosmos 1420 Rocket 4.4 22:53:13 10° NNW 22:58:27 57° ENE 23:00:36 33° SE
Cosmos 2366 rocket 4.4 22:56:35 34° SSE 22:59:06 53° E 23:05:16 10° NNE
Lacrosse 5 rocket 3.7 22:56:52 10° NW 23:00:04 22° NNE 23:03:08 10° ENE
Spot 4 4.1 22:59:07 40° SSW 23:00:33 57° W 23:05:17 10° NNW
Cosmos 1943 Rocket 3.3 22:55:47 10° NNW 23:01:03 37° NE 23:04:40 18° ESE
Cosmos 1633 4.4 23:01:11 20° E 23:01:11 20° E 23:03:45 10° NE
SL-16 R/B 2.3 23:00:46 41° SSE 23:02:31 58° ESE 23:08:06 10° NNE
TIMED 4.5 23:01:49 47° SSW 23:03:02 81° WNW 23:07:26 10° NNE
Cosmos 2058 4.5 23:01:10 19° WSW 23:03:12 29° WNW 23:06:50 10° NNW
Cosmos 1408 3.6 23:03:24 32° WSW 23:04:12 36° WNW 23:07:33 10° N
Cosmos 2056 Rocket 3.6 23:00:48 10° NNW 23:06:12 71° WSW 23:07:58 43° S
Cosmos 2341 Rocket 4.1 23:11:46 33° SSW 23:14:43 74° W 23:20:57 10° N
Cosmos 332 Rocket 4.2 23:15:05 10° NNW 23:19:49 54° ENE 23:21:28 36° ESE
Meteor 2-3 Rocket 3.8 23:21:02 42° SSE 23:22:52 64° E 23:28:30 10° NNE
USA 267 3.7 23:21:24 35° S 23:23:21 44° SW 23:29:35 10° WNW
IRIDIUM 104 4.2 23:23:26 46° S 23:25:04 87° W 23:30:20 10° N
Cosmos 2151 3.8 23:23:52 34° WSW 23:25:06 44° WNW 23:29:13 10° N
Helios 1A 3.1 23:24:53 52° SE 23:25:40 66° ENE 23:29:49 10° N
Cosmos 405 4.0 23:25:35 10° N 23:28:54 36° ENE 23:29:08 36° E
Meteor 1-26 Rocket 4.3 23:27:02 10° N 23:33:05 82° E 23:35:20 41° SSE
Cosmos 1452 Rocket 3.6 23:27:59 10° NNW 23:33:17 75° ENE 23:35:06 41° SE
SL-8 Rocket 4.1 23:30:59 35° SSW 23:33:40 71° W 23:39:50 10° N
CZ-4C R/B 3.8 23:27:12 10° NNW 23:33:52 46° NE 23:41:35 10° ESE
Cosmos 1825 3.7 23:32:56 24° W 23:33:54 27° WNW 23:37:11 10° NNW
IRIDIUM 114 4.4 23:32:35 44° SSW 23:34:14 73° W 23:39:29 10° N
Cosmos 1340 2.5 23:34:23 80° SW 23:34:34 86° W 23:38:21 10° N
COSMOS 2455 3.1 23:29:02 10° NNW 23:35:04 67° NE 23:38:24 27° SE
ALOS 2 3.1 23:35:27 42° SW 23:36:09 46° W 23:40:24 10° NNW
Cosmos 1408 Rocket 3.4 23:35:56 61° S 23:36:42 89° WNW 23:41:08 10° N
Cosmos 1933 3.4 23:33:52 10° NNW 23:37:51 61° W 23:38:13 58° SW
Cosmos 1151 Rocket 3.2 23:35:09 10° NNW 23:39:24 57° W 23:40:03 50° SW
Meteor 2-12 Rocket 4.5 23:37:27 38° SSW 23:39:58 77° W 23:46:09 10° N
Cosmos 44 3.4 23:43:37 36° WSW 23:45:10 60° NW 23:49:34 10° NNE
APEX 3.8 23:42:33 10° NNW 23:44:22 38° NNW 23:44:22 38° NNW
Cosmos 1500 Rocket 3.8 23:44:49 49° SE 23:45:32 56° E 23:49:51 10° NNE
Cosmos 1727 Rocket 3.9 23:39:16 10° N 23:45:33 88° E 23:48:04 39° S
Cosmos 2369 Rocket 2.7 23:40:13 10° NNW 23:45:42 54° ENE 23:48:49 25° SE
Resurs 1-4 Rocket 4.5 23:44:50 10° ENE 23:46:15 11° E 23:47:39 10° E
SL-4 R/B 3.8 23:48:59 12° NNW 23:48:59 12° NNW 23:49:12 10° NNW
GP-B 3.9 23:43:35 10° NNW 23:47:46 42° W 23:48:50 35° WSW
Cosmos 371 Rocket 3.4 23:44:42 10° NNW 23:49:30 60° WSW 23:50:25 50° SSW
SeaSat 1 4.3 23:47:38 10° ENE 23:50:35 16° ESE 23:51:20 15° ESE
Helios 1B rocket 3.0 23:51:01 10° NNE 23:54:57 42° E 23:55:23 40° ESE
CREW DRAGON DEMO-1 DEB 4.1 23:54:49 31° WNW 23:55:43 40° NNW 23:58:39 10° NE
